Precipitable_Water
0.46 0.29 0.25 0.21 0.22 0.23 0.22 0.23 0.21 0.21 0.27 0.29 0.30 0.33 0.35 0.38 0.41 0.48 0.59 0.73 0.91 0.87 0.87 0.88 0.90 0.89 0.94 1.00 1.05 1.19 1.27 1.26 1.22 1.26 1.43 1.39 1.35 1.26 1.20 1.18 1.20 1.20 1.16 1.24 1.28 1.29 1.29 1.31 1.31 1.31 1.29 1.25 1.22 1.24 1.21 1.16 1.11 1.03 1.06 0.96 1.04 1.11 1.14 1.19 1.14 1.11 1.10 1.15 1.08 1.14 1.14 1.14 1.11 1.19 1.30 1.36 1.45 1.48 1.51 1.59 1.60 1.61 1.67 1.73 1.74 1.80
0.41 0.28 0.26 0.26 0.24 0.26 0.25 0.23 0.23 0.22 0.25 0.29 0.32 0.29 0.30 0.35 0.36 0.44 0.55 0.67 0.80 0.79 0.82 0.89 0.87 0.90 0.96 0.98 1.01 1.14 1.22 1.15 1.17 1.27 1.47 1.39 1.38 1.36 1.27 1.24 1.24 1.25 1.31 1.30 1.28 1.30 1.30 1.31 1.31 1.29 1.27 1.24 1.16 1.20 1.20 1.18 1.13 1.05 1.07 0.94 1.02 1.10 1.11 1.15 1.09 1.05 1.04 1.13 1.07 1.04 1.08 1.13 1.12 1.07 1.14 1.18 1.28 1.37 1.44 1.46 1.53 1.58 1.62 1.65 1.69 1.72
0.30 0.27 0.27 0.30 0.30 0.30 0.30 0.26 0.22 0.21 0.21 0.25 0.28 0.32 0.31 0.30 0.36 0.42 0.51 0.66 0.71 0.71 0.70 0.85 0.84 0.82 0.89 0.92 0.98 1.02 1.08 1.17 1.22 1.34 1.42 1.36 1.34 1.33 1.26 1.23 1.29 1.34 1.28 1.26 1.24 1.26 1.25 1.25 1.29 1.27 1.26 1.24 1.23 1.22 1.19 1.20 1.19 1.07 1.07 1.01 1.00 1.05 1.09 1.13 1.10 1.04 0.97 1.03 1.08 1.02 1.05 1.05 1.12 1.17 1.14 1.17 1.22 1.30 1.35 1.41 1.45 1.51 1.55 1.61 1.61 1.64
0.25 0.28 0.31 0.32 0.34 0.31 0.28 0.27 0.23 0.19 0.20 0.22 0.24 0.27 0.29 0.35 0.33 0.32 0.41 0.57 0.68 0.66 0.64 0.71 0.74 0.81 0.87 0.94 1.03 1.07 1.12 1.14 1.19 1.22 1.31 1.50 1.31 1.28 1.24 1.21 1.29 1.35 1.33 1.22 1.16 1.19 1.23 1.25 1.28 1.26 1.25 1.22 1.24 1.24 1.21 1.19 1.18 1.12 1.08 1.03 0.99 1.00 1.05 1.13 1.11 1.07 1.02 1.01 1.06 1.07 1.08 1.04 1.09 1.13 1.14 1.16 1.20 1.18 1.26 1.34 1.42 1.42 1.51 1.55 1.61 1.63
0.27 0.31 0.35 0.34 0.35 0.35 0.28 0.27 0.25 0.21 0.16 0.18 0.21 0.23 0.27 0.33 0.38 0.36 0.42 0.51 0.60 0.65 0.66 0.65 0.64 0.69 0.77 0.79 0.90 1.04 1.02 1.01 1.13 1.31 1.44 1.48 1.46 1.45 1.39 1.34 1.33 1.27 1.33 1.35 1.22 1.20 1.22 1.20 1.21 1.22 1.23 1.26 1.18 1.20 1.20 1.19 1.19 1.13 1.05 1.03 0.99 0.98 0.99 1.07 1.11 1.08 1.05 1.03 1.03 1.06 1.06 1.08 1.03 1.17 1.19 1.11 1.09 1.15 1.14 1.27 1.38 1.41 1.45 1.53 1.59 1.65
0.29 0.33 0.35 0.34 0.33 0.35 0.31 0.27 0.27 0.24 0.17 0.16 0.16 0.21 0.26 0.31 0.34 0.38 0.42 0.46 0.53 0.52 0.59 0.56 0.48 0.53 0.68 0.71 0.74 0.88 1.00 0.98 1.18 1.23 1.24 1.30 1.28 1.38 1.20 1.25 1.35 1.37 1.37 1.45 1.33 1.21 1.19 1.20 1.24 1.25 1.25 1.22 1.21 1.21 1.23 1.22 1.21 1.20 1.11 1.07 1.02 1.00 0.98 1.03 1.10 1.09 1.07 1.02 1.00 0.96 0.92 0.91 0.90 0.95 1.03 0.97 0.95 1.03 1.11 1.11 1.29 1.40 1.46 1.51 1.56 1.64
0.29 0.33 0.32 0.30 0.30 0.32 0.32 0.29 0.29 0.27 0.20 0.16 0.15 0.18 0.21 0.23 0.27 0.34 0.37 0.44 0.42 0.38 0.48 0.54 0.41 0.41 0.58 0.60 0.65 0.73 0.81 0.95 1.18 1.15 1.07 1.16 1.35 1.45 1.32 1.33 1.39 1.39 1.44 1.49 1.50 1.40 1.31 1.26 1.26 1.23 1.22 1.22 1.18 1.22 1.28 1.28 1.26 1.24 1.17 1.10 1.03 1.00 0.97 1.00 1.08 1.08 1.06 1.03 1.01 0.96 0.88 0.89 0.86 0.82 0.92 1.01 1.02 1.02 1.11 1.15 1.19 1.30 1.43 1.50 1.54 1.61
0.31 0.30 0.32 0.31 0.28 0.28 0.29 0.27 0.29 0.30 0.23 0.18 0.19 0.19 0.17 0.16 0.21 0.30 0.38 0.42 0.41 0.47 0.50 0.52 0.49 0.42 0.45 0.53 0.60 0.65 0.70 0.78 0.98 1.03 1.04 1.02 1.29 1.34 1.34 1.34 1.46 1.46 1.48 1.39 1.39 1.40 1.36 1.28 1.21 1.18 1.20 1.22 1.20 1.26 1.29 1.28 1.29 1.26 1.21 1.14 1.06 1.03 0.98 0.98 1.05 1.03 1.03 1.01 0.99 0.95 0.91 0.91 0.90 0.85 0.87 0.94 0.96 1.00 1.06 1.08 1.11 1.22 1.36 1.47 1.52 1.59
0.32 0.27 0.28 0.28 0.27 0.25 0.24 0.28 0.33 0.33 0.25 0.20 0.20 0.20 0.20 0.17 0.16 0.23 0.35 0.41 0.42 0.41 0.37 0.46 0.50 0.41 0.41 0.53 0.63 0.62 0.58 0.65 0.77 0.92 0.95 0.99 1.14 1.24 1.30 1.36 1.48 1.54 1.52 1.52 1.53 1.43 1.34 1.30 1.25 1.24 1.25 1.28 1.30 1.30 1.26 1.26 1.26 1.28 1.28 1.23 1.16 1.07 1.01 0.99 1.04 0.97 0.97 0.99 0.98 0.97 0.94 0.90 0.91 0.89 0.89 0.97 0.98 0.96 0.99 1.04 1.09 1.14 1.31 1.44 1.51 1.53
0.38 0.32 0.30 0.29 0.29 0.24 0.27 0.32 0.34 0.30 0.23 0.23 0.22 0.21 0.21 0.20 0.17 0.16 0.20 0.29 0.35 0.36 0.31 0.39 0.46 0.35 0.38 0.52 0.56 0.62 0.59 0.59 0.67 0.84 0.95 1.03 1.17 1.23 1.33 1.38 1.37 1.40 1.48 1.49 1.53 1.47 1.39 1.37 1.38 1.33 1.32 1.33 1.32 1.33 1.32 1.33 1.34 1.33 1.33 1.27 1.19 1.11 1.06 1.04 1.02 0.98 0.94 0.95 0.98 0.95 0.95 0.90 0.88 0.89 0.90 0.96 1.03 0.98 0.99 0.97 1.07 1.09 1.22 1.37 1.50 1.52
0.41 0.42 0.34 0.30 0.28 0.31 0.30 0.29 0.29 0.28 0.27 0.28 0.23 0.20 0.22 0.21 0.19 0.17 0.15 0.17 0.20 0.21 0.27 0.37 0.42 0.40 0.35 0.46 0.51 0.53 0.56 0.61 0.66 0.77 0.99 1.05 1.15 1.24 1.28 1.32 1.27 1.32 1.43 1.49 1.46 1.39 1.41 1.46 1.46 1.46 1.34 1.28 1.32 1.36 1.36 1.33 1.32 1.34 1.32 1.29 1.19 1.14 1.13 1.10 1.05 1.01 0.96 0.94 0.96 0.93 0.93 0.91 0.88 0.89 0.88 0.89 0.99 1.06 1.00 0.94 1.02 1.07 1.12 1.23 1.39 1.56
0.36 0.41 0.36 0.33 0.33 0.34 0.33 0.28 0.29 0.29 0.28 0.27 0.24 0.20 0.19 0.19 0.20 0.17 0.15 0.14 0.12 0.12 0.18 0.30 0.38 0.44 0.33 0.41 0.53 0.58 0.62 0.65 0.70 0.72 0.91 1.00 1.12 1.26 1.30 1.32 1.32 1.38 1.54 1.50 1.47 1.42 1.45 1.49 1.53 1.48 1.40 1.35 1.30 1.33 1.34 1.33 1.33 1.34 1.33 1.31 1.24 1.21 1.18 1.15 1.14 1.08 1.02 0.98 0.97 0.97 0.96 0.92 0.93 0.93 0.88 0.88 0.90 1.03 1.00 0.97 0.97 1.07 1.13 1.14 1.21 1.41
0.26 0.31 0.41 0.43 0.40 0.32 0.31 0.28 0.28 0.30 0.30 0.27 0.26 0.24 0.17 0.15 0.16 0.12 0.13 0.10 0.09 0.09 0.16 0.24 0.34 0.35 0.36 0.43 0.54 0.56 0.62 0.66 0.68 0.71 0.92 0.96 1.02 1.11 1.27 1.25 1.30 1.41 1.45 1.43 1.49 1.54 1.53 1.51 1.41 1.39 1.39 1.39 1.33 1.26 1.29 1.29 1.31 1.31 1.32 1.31 1.24 1.20 1.20 1.17 1.17 1.13 1.09 1.04 1.01 1.01 1.01 1.00 1.01 0.99 0.94 0.94 0.92 1.03 1.03 1.03 1.00 1.04 1.07 1.13 1.10 1.19
0.21 0.29 0.32 0.40 0.43 0.40 0.33 0.25 0.24 0.26 0.30 0.29 0.25 0.24 0.19 0.14 0.14 0.11 0.11 0.12 0.11 0.12 0.15 0.24 0.31 0.29 0.37 0.42 0.52 0.59 0.62 0.67 0.68 0.69 0.74 0.94 0.99 1.10 1.18 1.20 1.36 1.51 1.45 1.42 1.56 1.65 1.54 1.49 1.43 1.39 1.38 1.37 1.33 1.28 1.27 1.29 1.31 1.32 1.32 1.32 1.27 1.23 1.24 1.20 1.19 1.16 1.12 1.10 1.09 1.10 1.07 1.06 1.07 1.04 1.05 1.04 1.00 1.04 1.09 1.09 1.04 1.04 1.08 1.13 1.12 1.14
0.16 0.19 0.24 0.30 0.32 0.44 0.36 0.30 0.27 0.28 0.32 0.31 0.31 0.28 0.24 0.20 0.17 0.12 0.11 0.10 0.10 0.13 0.15 0.16 0.24 0.25 0.28 0.32 0.50 0.52 0.64 0.67 0.71 0.73 0.73 0.87 1.03 1.13 1.22 1.24 1.31 1.55 1.56 1.50 1.48 1.65 1.50 1.47 1.43 1.41 1.39 1.37 1.37 1.33 1.31 1.31 1.31 1.33 1.31 1.32 1.29 1.28 1.30 1.26 1.21 1.21 1.16 1.16 1.16 1.17 1.16 1.14 1.16 1.13 1.13 1.14 1.11 1.11 1.13 1.13 1.12 1.09 1.12 1.17 1.20 1.18
0.23 0.21 0.29 0.32 0.32 0.42 0.39 0.36 0.34 0.30 0.32 0.36 0.35 0.34 0.28 0.24 0.25 0.18 0.18 0.15 0.16 0.14 0.15 0.18 0.14 0.26 0.31 0.41 0.46 0.56 0.58 0.62 0.71 0.73 0.73 0.76 1.03 1.11 1.17 1.21 1.18 1.19 1.31 1.51 1.57 1.56 1.51 1.42 1.41 1.42 1.42 1.41 1.39 1.38 1.36 1.33 1.31 1.29 1.29 1.31 1.29 1.28 1.30 1.29 1.26 1.23 1.21 1.22 1.21 1.22 1.20 1.22 1.25 1.24 1.22 1.21 1.21 1.19 1.20 1.20 1.17 1.16 1.12 1.17 1.27 1.29
0.20 0.21 0.28 0.33 0.37 0.34 0.40 0.40 0.34 0.35 0.24 0.32 0.34 0.29 0.29 0.32 0.28 0.23 0.26 0.29 0.24 0.19 0.16 0.21 0.23 0.21 0.28 0.38 0.43 0.47 0.52 0.56 0.60 0.67 0.69 0.71 0.92 1.04 1.04 1.20 1.17 1.21 1.41 1.35 1.31 1.47 1.47 1.42 1.39 1.39 1.41 1.43 1.43 1.41 1.36 1.34 1.32 1.26 1.27 1.28 1.30 1.33 1.34 1.34 1.31 1.28 1.27 1.28 1.26 1.26 1.24 1.25 1.28 1.27 1.22 1.21 1.21 1.20 1.23 1.24 1.23 1.21 1.19 1.18 1.25 1.34
0.25 0.28 0.31 0.33 0.32 0.37 0.42 0.44 0.39 0.35 0.35 0.36 0.30 0.32 0.38 0.37 0.32 0.26 0.20 0.25 0.25 0.20 0.18 0.19 0.18 0.22 0.20 0.16 0.31 0.38 0.44 0.53 0.57 0.58 0.62 0.69 0.82 0.94 1.02 1.17 1.18 1.23 1.36 1.36 1.31 1.36 1.43 1.37 1.34 1.39 1.45 1.47 1.45 1.43 1.38 1.37 1.37 1.35 1.31 1.27 1.25 1.29 1.29 1.33 1.34 1.34 1.32 1.28 1.26 1.27 1.27 1.27 1.30 1.29 1.26 1.26 1.26 1.27 1.25 1.24 1.26 1.26 1.26 1.22 1.21 1.27
0.29 0.22 0.30 0.37 0.41 0.39 0.38 0.39 0.40 0.40 0.37 0.35 0.35 0.43 0.32 0.27 0.24 0.26 0.24 0.20 0.22 0.20 0.22 0.24 0.23 0.23 0.25 0.19 0.25 0.32 0.37 0.46 0.52 0.56 0.58 0.61 0.70 0.74 0.82 1.01 1.15 1.15 1.22 1.26 1.32 1.40 1.43 1.36 1.31 1.32 1.37 1.45 1.50 1.51 1.50 1.48 1.46 1.42 1.38 1.34 1.29 1.23 1.26 1.29 1.34 1.35 1.36 1.34 1.29 1.28 1.27 1.29 1.32 1.33 1.30 1.31 1.34 1.35 1.28 1.26 1.27 1.24 1.27 1.28 1.24 1.25
0.31 0.21 0.27 0.36 0.37 0.43 0.42 0.40 0.31 0.34 0.36 0.36 0.42 0.41 0.44 0.35 0.30 0.25 0.24 0.25 0.28 0.24 0.23 0.21 0.29 0.23 0.28 0.27 0.25 0.27 0.36 0.38 0.41 0.47 0.51 0.54 0.58 0.60 0.67 0.79 0.96 1.11 1.15 1.16 1.21 1.29 1.37 1.33 1.25 1.25 1.31 1.39 1.47 1.51 1.54 1.53 1.53 1.47 1.43 1.37 1.32 1.32 1.35 1.37 1.35 1.35 1.32 1.33 1.31 1.33 1.34 1.36 1.36 1.35 1.34 1.34 1.35 1.34 1.30 1.29 1.28 1.25 1.23 1.25 1.29 1.27
0.24 0.30 0.21 0.31 0.36 0.39 0.34 0.37 0.32 0.33 0.31 0.30 0.32 0.34 0.41 0.38 0.37 0.34 0.31 0.26 0.25 0.24 0.24 0.22 0.19 0.24 0.30 0.37 0.36 0.32 0.30 0.34 0.35 0.36 0.40 0.44 0.48 0.54 0.58 0.68 0.81 0.99 1.14 1.18 1.17 1.17 1.28 1.34 1.25 1.26 1.30 1.37 1.49 1.58 1.61 1.58 1.51 1.51 1.50 1.44 1.38 1.30 1.27 1.26 1.27 1.30 1.30 1.33 1.35 1.37 1.34 1.33 1.35 1.34 1.36 1.37 1.37 1.33 1.32 1.30 1.27 1.27 1.25 1.28 1.25 1.30
0.24 0.25 0.17 0.22 0.30 0.30 0.32 0.44 0.44 0.41 0.39 0.34 0.30 0.35 0.40 0.37 0.32 0.27 0.25 0.30 0.26 0.24 0.24 0.24 0.22 0.27 0.29 0.30 0.30 0.32 0.36 0.37 0.37 0.36 0.36 0.38 0.38 0.46 0.56 0.63 0.73 0.83 1.01 1.09 1.04 1.07 1.22 1.37 1.29 1.28 1.33 1.40 1.46 1.52 1.52 1.56 1.58 1.56 1.52 1.50 1.44 1.38 1.30 1.25 1.26 1.26 1.25 1.29 1.33 1.34 1.35 1.36 1.38 1.36 1.36 1.34 1.34 1.32 1.34 1.31 1.29 1.30 1.28 1.24 1.24 1.27
0.34 0.33 0.28 0.23 0.26 0.32 0.33 0.38 0.44 0.45 0.43 0.41 0.39 0.34 0.41 0.41 0.39 0.31 0.25 0.28 0.30 0.28 0.31 0.29 0.26 0.29 0.38 0.36 0.33 0.30 0.30 0.35 0.39 0.36 0.35 0.36 0.37 0.38 0.47 0.57 0.67 0.78 0.89 1.05 1.13 1.22 1.29 1.37 1.37 1.30 1.31 1.32 1.36 1.43 1.48 1.54 1.54 1.51 1.50 1.51 1.49 1.40 1.33 1.29 1.26 1.28 1.27 1.25 1.27 1.30 1.35 1.39 1.39 1.36 1.35 1.31 1.32 1.30 1.31 1.31 1.29 1.30 1.25 1.21 1.23 1.26
0.40 0.28 0.24 0.24 0.29 0.36 0.43 0.41 0.42 0.45 0.44 0.43 0.43 0.40 0.35 0.37 0.39 0.36 0.33 0.34 0.32 0.33 0.29 0.26 0.25 0.32 0.42 0.46 0.43 0.37 0.32 0.33 0.38 0.36 0.36 0.36 0.38 0.38 0.41 0.50 0.61 0.75 0.89 1.02 1.09 1.11 1.11 1.04 1.26 1.37 1.33 1.33 1.34 1.40 1.48 1.53 1.55 1.57 1.57 1.55 1.52 1.44 1.40 1.36 1.35 1.34 1.29 1.23 1.23 1.25 1.31 1.35 1.37 1.36 1.35 1.30 1.31 1.27 1.29 1.31 1.28 1.27 1.25 1.21 1.23 1.25
0.28 0.31 0.25 0.22 0.20 0.22 0.32 0.41 0.41 0.45 0.43 0.41 0.39 0.40 0.39 0.35 0.37 0.40 0.41 0.45 0.36 0.35 0.33 0.27 0.21 0.25 0.45 0.47 0.44 0.40 0.35 0.31 0.28 0.29 0.32 0.34 0.41 0.44 0.44 0.48 0.60 0.75 0.87 0.97 1.00 1.01 1.05 1.10 1.29 1.38 1.35 1.29 1.28 1.35 1.41 1.46 1.52 1.55 1.55 1.56 1.52 1.49 1.50 1.43 1.40 1.37 1.33 1.25 1.21 1.24 1.26 1.26 1.32 1.33 1.32 1.31 1.32 1.31 1.31 1.30 1.31 1.28 1.23 1.22 1.18 1.24
0.32 0.32 0.29 0.21 0.17 0.15 0.18 0.25 0.30 0.34 0.35 0.40 0.42 0.40 0.39 0.38 0.38 0.37 0.35 0.42 0.35 0.39 0.39 0.33 0.27 0.31 0.39 0.51 0.50 0.43 0.35 0.32 0.32 0.34 0.37 0.38 0.42 0.42 0.48 0.55 0.74 0.79 0.81 0.92 1.01 1.04 1.04 1.07 1.12 1.23 1.28 1.30 1.28 1.30 1.36 1.42 1.49 1.55 1.57 1.56 1.57 1.55 1.55 1.49 1.46 1.40 1.37 1.31 1.26 1.24 1.21 1.21 1.25 1.27 1.30 1.31 1.33 1.34 1.32 1.29 1.30 1.34 1.27 1.24 1.17 1.19
0.30 0.33 0.33 0.32 0.28 0.24 0.27 0.41 0.49 0.46 0.42 0.36 0.38 0.39 0.40 0.42 0.42 0.44 0.44 0.41 0.36 0.39 0.38 0.42 0.40 0.36 0.32 0.37 0.47 0.49 0.39 0.31 0.28 0.38 0.47 0.38 0.36 0.41 0.49 0.59 0.65 0.93 1.02 0.99 1.11 1.08 1.05 1.17 1.16 1.20 1.28 1.30 1.27 1.28 1.34 1.38 1.45 1.51 1.57 1.60 1.65 1.64 1.59 1.56 1.52 1.48 1.44 1.35 1.28 1.25 1.22 1.19 1.17 1.21 1.26 1.29 1.33 1.35 1.35 1.28 1.27 1.31 1.33 1.26 1.19 1.16
0.26 0.24 0.27 0.30 0.32 0.31 0.35 0.40 0.46 0.45 0.39 0.38 0.37 0.39 0.41 0.40 0.45 0.43 0.39 0.36 0.44 0.42 0.36 0.45 0.50 0.50 0.45 0.43 0.52 0.55 0.70 0.63 0.64 0.62 0.58 0.61 0.48 0.57 0.62 0.59 0.59 0.74 0.88 0.98 1.05 1.11 1.21 1.27 1.33 1.29 1.29 1.29 1.28 1.25 1.28 1.34 1.38 1.46 1.52 1.57 1.65 1.67 1.65 1.62 1.56 1.53 1.50 1.43 1.33 1.27 1.24 1.23 1.19 1.20 1.24 1.30 1.32 1.33 1.33 1.28 1.24 1.28 1.34 1.33 1.22 1.16
0.24 0.20 0.22 0.24 0.25 0.30 0.33 0.35 0.40 0.41 0.42 0.40 0.39 0.38 0.38 0.42 0.45 0.43 0.41 0.43 0.48 0.44 0.41 0.47 0.52 0.50 0.52 0.54 0.67 0.77 0.75 0.74 0.67 0.60 0.68 0.72 0.78 0.83 0.79 0.63 0.51 0.57 0.68 0.79 0.86 0.88 0.91 1.03 1.16 1.18 1.19 1.21 1.22 1.19 1.22 1.30 1.36 1.42 1.50 1.56 1.62 1.66 1.64 1.64 1.59 1.56 1.54 1.49 1.38 1.33 1.30 1.29 1.28 1.25 1.26 1.29 1.29 1.28 1.30 1.27 1.23 1.24 1.30 1.32 1.26 1.19
0.26 0.22 0.23 0.24 0.25 0.26 0.30 0.31 0.36 0.37 0.40 0.41 0.41 0.40 0.40 0.42 0.43 0.46 0.44 0.47 0.49 0.48 0.53 0.56 0.55 0.55 0.59 0.72 0.74 0.77 0.81 0.71 0.66 0.68 0.67 0.78 0.89 0.86 0.80 0.77 0.69 0.69 0.68 0.77 0.91 0.82 0.91 1.01 1.08 1.16 1.19 1.20 1.20 1.17 1.18 1.27 1.34 1.38 1.42 1.48 1.52 1.58 1.66 1.67 1.61 1.58 1.57 1.51 1.45 1.45 1.42 1.38 1.32 1.28 1.27 1.25 1.26 1.24 1.26 1.28 1.24 1.21 1.23 1.28 1.26 1.20
0.26 0.23 0.26 0.27 0.24 0.23 0.25 0.29 0.32 0.34 0.36 0.36 0.40 0.42 0.42 0.42 0.43 0.43 0.44 0.44 0.46 0.46 0.51 0.55 0.53 0.55 0.63 0.84 0.85 0.84 0.83 0.73 0.67 0.68 0.81 0.89 0.88 0.86 0.82 0.84 0.88 0.89 0.89 0.91 1.12 1.15 1.14 1.10 1.11 1.16 1.13 1.13 1.12 1.15 1.17 1.25 1.33 1.38 1.43 1.49 1.52 1.53 1.62 1.66 1.62 1.60 1.59 1.56 1.55 1.54 1.52 1.46 1.36 1.31 1.23 1.24 1.26 1.25 1.24 1.27 1.26 1.22 1.22 1.25 1.24 1.19
0.32 0.26 0.28 0.25 0.22 0.20 0.22 0.23 0.27 0.30 0.35 0.37 0.37 0.40 0.41 0.38 0.35 0.39 0.40 0.44 0.43 0.44 0.49 0.51 0.51 0.50 0.60 0.69 0.84 0.78 0.77 0.70 0.63 0.69 0.76 0.88 0.91 0.83 0.80 0.83 0.85 0.87 0.90 0.90 1.08 1.06 1.12 1.18 1.22 1.18 1.19 1.10 1.06 1.05 1.10 1.20 1.31 1.38 1.38 1.45 1.47 1.51 1.58 1.61 1.61 1.61 1.62 1.65 1.65 1.62 1.56 1.49 1.43 1.34 1.28 1.27 1.24 1.23 1.21 1.24 1.26 1.24 1.22 1.22 1.20 1.18
0.30 0.28 0.25 0.24 0.19 0.17 0.20 0.21 0.21 0.25 0.28 0.30 0.34 0.38 0.40 0.40 0.39 0.40 0.42 0.45 0.45 0.46 0.44 0.45 0.48 0.58 0.61 0.85 0.73 0.77 0.75 0.73 0.72 0.70 0.72 0.68 0.69 0.65 0.70 0.82 0.76 0.80 0.91 0.87 0.89 1.05 1.26 1.22 1.17 1.20 1.28 1.23 1.21 1.10 1.04 1.09 1.22 1.31 1.35 1.40 1.46 1.53 1.55 1.56 1.60 1.64 1.67 1.69 1.67 1.67 1.64 1.57 1.47 1.39 1.33 1.27 1.24 1.23 1.21 1.20 1.22 1.22 1.22 1.20 1.21 1.20
0.32 0.31 0.26 0.27 0.21 0.20 0.21 0.20 0.24 0.24 0.21 0.23 0.36 0.44 0.44 0.40 0.39 0.37 0.37 0.40 0.45 0.47 0.45 0.50 0.54 0.60 0.70 0.81 0.75 0.70 0.69 0.66 0.66 0.68 0.70 0.65 0.70 0.86 0.94 1.01 0.91 0.95 1.06 1.01 1.07 1.19 1.28 1.40 1.50 1.35 1.34 1.29 1.33 1.24 1.17 1.14 1.16 1.24 1.34 1.42 1.52 1.53 1.54 1.57 1.63 1.65 1.65 1.69 1.69 1.70 1.69 1.64 1.55 1.43 1.36 1.33 1.27 1.22 1.17 1.15 1.16 1.20 1.23 1.25 1.25 1.20
0.31 0.32 0.27 0.29 0.22 0.20 0.21 0.22 0.19 0.16 0.19 0.31 0.39 0.45 0.46 0.46 0.43 0.39 0.40 0.41 0.44 0.46 0.53 0.56 0.61 0.64 0.77 0.85 0.83 0.77 0.71 0.69 0.66 0.69 0.66 0.80 0.91 0.87 0.89 0.90 0.94 0.96 1.02 1.05 1.07 1.11 1.22 1.31 1.25 1.22 1.11 1.17 1.26 1.34 1.33 1.25 1.21 1.26 1.28 1.36 1.41 1.46 1.50 1.56 1.60 1.63 1.66 1.67 1.70 1.72 1.72 1.67 1.59 1.50 1.43 1.37 1.30 1.23 1.15 1.12 1.16 1.18 1.22 1.24 1.22 1.18
0.27 0.26 0.28 0.27 0.26 0.24 0.21 0.19 0.14 0.14 0.24 0.32 0.37 0.45 0.52 0.51 0.47 0.43 0.39 0.42 0.52 0.62 0.60 0.55 0.60 0.68 0.78 0.82 0.79 0.79 0.77 0.72 0.68 0.67 0.83 0.82 0.77 0.80 0.78 0.82 0.86 0.88 0.93 0.99 1.00 1.09 1.20 1.26 1.31 1.35 1.34 1.38 1.22 1.20 1.37 1.31 1.25 1.24 1.22 1.26 1.33 1.39 1.45 1.52 1.58 1.61 1.65 1.66 1.68 1.69 1.70 1.67 1.63 1.58 1.49 1.39 1.33 1.25 1.16 1.14 1.15 1.15 1.21 1.22 1.25 1.26
0.29 0.29 0.29 0.26 0.27 0.20 0.20 0.18 0.18 0.20 0.20 0.24 0.27 0.34 0.44 0.49 0.52 0.52 0.43 0.55 0.64 0.68 0.69 0.67 0.70 0.72 0.75 0.73 0.75 0.75 0.80 0.74 0.64 0.69 0.84 0.77 0.77 0.77 0.78 0.81 0.88 0.91 0.95 0.99 1.03 1.07 1.15 1.24 1.33 1.38 1.35 1.29 1.26 1.15 1.20 1.34 1.30 1.25 1.27 1.23 1.26 1.35 1.39 1.46 1.52 1.56 1.58 1.60 1.65 1.69 1.70 1.69 1.63 1.60 1.54 1.45 1.35 1.27 1.22 1.16 1.15 1.18 1.23 1.19 1.20 1.22
0.33 0.26 0.29 0.24 0.24 0.25 0.20 0.18 0.18 0.18 0.14 0.17 0.39 0.55 0.62 0.63 0.65 0.68 0.63 0.56 0.66 0.71 0.73 0.71 0.69 0.69 0.65 0.67 0.70 0.75 0.73 0.71 0.59 0.68 0.80 0.80 0.81 0.78 0.82 0.88 0.95 0.96 0.98 1.01 1.06 1.12 1.17 1.23 1.31 1.35 1.32 1.24 1.17 1.11 1.14 1.29 1.32 1.25 1.24 1.22 1.21 1.26 1.32 1.37 1.41 1.51 1.57 1.58 1.63 1.66 1.69 1.68 1.65 1.60 1.58 1.52 1.37 1.29 1.27 1.25 1.23 1.20 1.23 1.17 1.15 1.17
0.38 0.35 0.33 0.28 0.25 0.24 0.21 0.18 0.18 0.16 0.17 0.41 0.49 0.52 0.62 0.65 0.71 0.72 0.61 0.54 0.76 0.75 0.78 0.72 0.69 0.68 0.65 0.66 0.69 0.72 0.68 0.56 0.56 0.78 0.82 0.79 0.77 0.82 0.80 0.86 0.92 0.97 1.01 1.05 1.07 1.09 1.14 1.15 1.14 1.13 1.13 1.16 1.09 1.05 1.06 1.22 1.31 1.24 1.21 1.23 1.24 1.19 1.19 1.26 1.35 1.46 1.50 1.53 1.60 1.64 1.67 1.68 1.66 1.62 1.59 1.54 1.46 1.38 1.32 1.30 1.28 1.26 1.28 1.23 1.21 1.19
0.32 0.35 0.33 0.26 0.23 0.25 0.23 0.20 0.17 0.19 0.18 0.38 0.47 0.57 0.62 0.63 0.69 0.66 0.43 0.45 0.75 0.84 0.80 0.74 0.67 0.67 0.68 0.72 0.72 0.71 0.61 0.54 0.63 0.73 0.84 0.84 0.82 0.85 0.85 0.84 0.89 0.96 1.02 1.09 1.13 1.14 1.11 1.09 1.07 1.08 1.11 1.07 1.07 1.06 1.04 1.18 1.28 1.24 1.20 1.21 1.28 1.20 1.12 1.16 1.28 1.41 1.53 1.59 1.62 1.64 1.65 1.66 1.64 1.60 1.58 1.57 1.54 1.50 1.43 1.40 1.38 1.35 1.30 1.27 1.25 1.22
0.30 0.31 0.31 0.25 0.24 0.23 0.22 0.21 0.22 0.21 0.33 0.38 0.45 0.49 0.56 0.67 0.60 0.44 0.35 0.58 0.82 0.85 0.81 0.76 0.70 0.72 0.73 0.71 0.71 0.61 0.66 0.67 0.67 0.72 0.82 0.86 0.87 0.89 0.92 0.94 0.94 0.99 1.02 1.04 1.05 1.12 1.09 1.14 1.12 1.11 1.15 1.16 1.13 1.07 1.09 1.20 1.26 1.23 1.24 1.26 1.26 1.20 1.10 1.16 1.32 1.45 1.54 1.57 1.59 1.59 1.60 1.64 1.62 1.57 1.58 1.62 1.58 1.54 1.48 1.42 1.38 1.37 1.33 1.29 1.29 1.27
0.26 0.28 0.29 0.30 0.25 0.22 0.22 0.19 0.19 0.21 0.38 0.48 0.48 0.43 0.53 0.46 0.39 0.39 0.64 0.83 0.86 0.84 0.84 0.80 0.73 0.73 0.73 0.73 0.72 0.68 0.69 0.72 0.76 0.77 0.76 0.78 0.82 0.84 0.87 0.91 0.97 1.02 1.06 1.09 1.09 1.08 1.08 1.10 1.18 1.18 1.18 1.18 1.16 1.13 1.12 1.19 1.23 1.25 1.27 1.25 1.23 1.20 1.17 1.27 1.37 1.43 1.48 1.51 1.53 1.56 1.57 1.59 1.62 1.60 1.58 1.61 1.61 1.53 1.46 1.45 1.43 1.39 1.36 1.34 1.31 1.27
0.32 0.26 0.23 0.23 0.25 0.27 0.26 0.22 0.19 0.16 0.39 0.45 0.46 0.38 0.49 0.37 0.52 0.70 0.77 0.81 0.86 0.85 0.85 0.80 0.78 0.77 0.76 0.74 0.75 0.71 0.70 0.74 0.78 0.78 0.79 0.81 0.86 0.85 0.86 0.91 0.94 0.96 0.98 1.00 1.04 1.12 1.16 1.14 1.16 1.25 1.20 1.17 1.19 1.21 1.20 1.22 1.21 1.25 1.28 1.18 1.20 1.30 1.32 1.36 1.39 1.42 1.46 1.47 1.49 1.52 1.53 1.57 1.58 1.54 1.56 1.57 1.58 1.51 1.41 1.43 1.40 1.39 1.38 1.34 1.31 1.29
0.45 0.32 0.29 0.29 0.33 0.23 0.22 0.20 0.21 0.27 0.46 0.53 0.47 0.37 0.52 0.55 0.67 0.76 0.78 0.76 0.85 0.84 0.80 0.80 0.79 0.80 0.81 0.76 0.74 0.72 0.71 0.72 0.77 0.81 0.82 0.86 0.91 0.93 0.93 0.96 1.02 1.04 1.06 1.11 1.13 1.16 1.19 1.24 1.28 1.32 1.30 1.22 1.25 1.23 1.21 1.22 1.23 1.23 1.24 1.23 1.32 1.35 1.40 1.41 1.43 1.45 1.45 1.44 1.45 1.49 1.52 1.55 1.57 1.55 1.54 1.56 1.55 1.48 1.39 1.38 1.37 1.37 1.35 1.33 1.31 1.27
0.47 0.38 0.41 0.32 0.39 0.36 0.27 0.31 0.44 0.46 0.51 0.52 0.54 0.54 0.57 0.65 0.69 0.74 0.78 0.80 0.80 0.82 0.85 0.79 0.77 0.80 0.81 0.79 0.76 0.74 0.73 0.73 0.76 0.82 0.84 0.89 0.94 0.97 0.97 1.00 1.05 1.06 1.11 1.12 1.14 1.23 1.30 1.31 1.34 1.41 1.44 1.34 1.34 1.32 1.25 1.26 1.27 1.27 1.21 1.28 1.34 1.36 1.40 1.43 1.46 1.46 1.45 1.43 1.45 1.47 1.51 1.56 1.56 1.52 1.51 1.55 1.51 1.41 1.36 1.34 1.34 1.30 1.31 1.31 1.28 1.26
0.51 0.52 0.55 0.46 0.40 0.49 0.49 0.45 0.48 0.49 0.50 0.53 0.54 0.54 0.55 0.59 0.66 0.71 0.74 0.74 0.80 0.85 0.86 0.83 0.82 0.79 0.79 0.80 0.76 0.75 0.74 0.75 0.76 0.79 0.87 0.93 0.96 0.99 1.04 1.05 1.10 1.16 1.19 1.21 1.22 1.28 1.35 1.42 1.50 1.51 1.48 1.54 1.46 1.42 1.37 1.38 1.40 1.33 1.28 1.36 1.41 1.42 1.43 1.47 1.48 1.45 1.46 1.46 1.47 1.49 1.53 1.52 1.52 1.51 1.51 1.50 1.48 1.42 1.40 1.34 1.31 1.29 1.31 1.34 1.34 1.36
0.53 0.55 0.49 0.41 0.45 0.40 0.30 0.49 0.44 0.47 0.48 0.48 0.53 0.56 0.56 0.58 0.61 0.68 0.71 0.75 0.80 0.84 0.86 0.88 0.87 0.83 0.79 0.80 0.77 0.75 0.76 0.77 0.77 0.82 0.90 0.96 0.98 1.03 1.08 1.10 1.14 1.20 1.22 1.25 1.27 1.30 1.36 1.43 1.48 1.54 1.56 1.59 1.61 1.54 1.50 1.50 1.51 1.51 1.51 1.49 1.48 1.45 1.49 1.49 1.49 1.46 1.47 1.47 1.50 1.52 1.53 1.49 1.48 1.51 1.50 1.47 1.48 1.49 1.50 1.51 1.50 1.49 1.48 1.48 1.44 1.45
0.44 0.58 0.45 0.43 0.44 0.40 0.39 0.45 0.50 0.52 0.54 0.56 0.56 0.52 0.50 0.53 0.59 0.65 0.70 0.77 0.81 0.85 0.86 0.89 0.87 0.83 0.85 0.79 0.78 0.76 0.75 0.79 0.80 0.83 0.89 0.96 1.02 1.07 1.11 1.13 1.16 1.21 1.25 1.31 1.34 1.36 1.40 1.47 1.52 1.58 1.57 1.52 1.64 1.67 1.60 1.59 1.61 1.62 1.64 1.59 1.53 1.48 1.52 1.49 1.50 1.46 1.48 1.51 1.53 1.52 1.53 1.51 1.51 1.50 1.42 1.42 1.47 1.50 1.54 1.59 1.59 1.54 1.51 1.49 1.48 1.46
0.51 0.53 0.39 0.45 0.41 0.44 0.47 0.49 0.49 0.50 0.49 0.51 0.54 0.54 0.55 0.57 0.58 0.64 0.68 0.72 0.78 0.80 0.83 0.89 0.92 0.86 0.85 0.84 0.83 0.80 0.78 0.80 0.83 0.84 0.88 0.97 1.04 1.08 1.11 1.17 1.21 1.22 1.27 1.31 1.35 1.41 1.43 1.48 1.52 1.55 1.57 1.61 1.65 1.62 1.64 1.61 1.65 1.70 1.67 1.66 1.59 1.54 1.51 1.49 1.53 1.53 1.53 1.55 1.56 1.55 1.56 1.55 1.51 1.47 1.44 1.48 1.52 1.61 1.71 1.64 1.60 1.60 1.62 1.66 1.64 1.58
0.50 0.42 0.49 0.45 0.37 0.36 0.38 0.48 0.54 0.42 0.40 0.47 0.53 0.60 0.62 0.63 0.61 0.63 0.65 0.67 0.71 0.75 0.80 0.84 0.89 0.91 0.88 0.87 0.87 0.85 0.79 0.80 0.84 0.86 0.86 0.92 1.02 1.07 1.10 1.16 1.21 1.26 1.28 1.36 1.41 1.47 1.48 1.52 1.54 1.57 1.57 1.58 1.64 1.72 1.74 1.71 1.71 1.75 1.74 1.80 1.73 1.63 1.55 1.56 1.55 1.54 1.55 1.55 1.55 1.56 1.53 1.53 1.49 1.44 1.51 1.55 1.55 1.54 1.60 1.68 1.69 1.70 1.74 1.71 1.66 1.67
0.47 0.49 0.48 0.41 0.40 0.39 0.48 0.52 0.57 0.58 0.54 0.55 0.57 0.61 0.62 0.61 0.60 0.60 0.62 0.65 0.70 0.77 0.80 0.82 0.83 0.88 0.89 0.89 0.90 0.86 0.83 0.81 0.84 0.87 0.89 0.92 1.01 1.08 1.14 1.17 1.22 1.28 1.34 1.38 1.40 1.50 1.50 1.52 1.56 1.58 1.59 1.61 1.67 1.75 1.79 1.79 1.78 1.79 1.83 1.87 1.80 1.73 1.67 1.64 1.58 1.56 1.57 1.55 1.53 1.54 1.51 1.51 1.47 1.47 1.55 1.64 1.62 1.58 1.56 1.60 1.69 1.76 1.79 1.75 1.77 1.77
Wind_Speed
25 24 25 25 25 25 26 26 26 24 21 19 20 21 23 23 20 20 21 20 18 19 21 21 20 19 19 18 17 18 19 20 19 18 19 19 19 19 18 18 18 18 19 20 22 23 24 24 24 24 23 24 23 22 22 23 23 23 22 22 21 21 20 20 20 19 18 17 16 15 14 13 12 11 11 10 10 9 9 9 9 9 8 8 7 7
26 27 27 27 26 25 26 26 27 27 24 21 19 19 22 24 22 19 19 21 20 19 20 21 21 20 20 19 19 20 20 20 20 20 21 21 19 19 19 19 18 18 18 20 22 23 24 24 25 24 24 25 24 23 23 23 23 23 23 23 22 22 21 20 20 19 19 18 16 16 14 13 13 12 11 10 10 10 9 9 8 8 8 7 7 6
27 29 28 27 26 26 26 26 28 28 26 23 21 19 19 21 23 21 19 21 21 19 19 21 21 21 21 19 20 22 21 20 21 21 21 21 20 19 19 19 19 19 19 20 22 23 25 25 25 25 24 25 25 24 24 24 24 24 23 23 23 23 22 21 21 20 19 18 17 16 15 14 13 12 12 11 10 10 9 9 9 8 8 7 7 6
27 28 28 27 26 27 27 26 27 28 27 25 23 22 20 20 22 21 19 20 20 19 18 20 20 20 21 20 21 24 22 21 22 22 21 21 21 20 20 19 19 20 20 21 22 23 24 25 26 26 25 25 25 25 25 25 24 24 24 24 24 24 23 22 22 21 20 19 18 17 15 14 13 12 12 12 11 10 10 9 9 8 8 8 7 6
27 26 27 29 29 28 29 27 27 27 27 28 27 24 22 21 22 22 19 19 21 21 20 19 19 19 21 21 22 23 22 21 23 24 23 21 21 20 20 20 19 20 20 21 22 23 24 25 26 26 26 26 26 25 25 26 25 24 25 25 25 24 24 23 23 22 20 20 19 18 16 15 14 13 12 12 11 11 10 10 9 8 8 8 7 7
28 26 26 29 31 30 29 28 28 27 25 27 29 28 25 23 22 23 22 19 19 22 22 21 19 19 21 23 22 22 22 22 23 25 24 21 20 20 20 20 20 20 20 21 22 22 23 25 26 27 26 26 26 26 26 26 26 25 25 26 25 25 24 24 23 23 21 20 20 19 18 17 16 14 13 13 12 11 11 10 9 9 9 8 8 7
28 28 26 27 30 31 30 29 29 28 25 24 26 28 30 28 24 23 23 21 19 19 20 23 22 18 20 23 24 23 23 24 24 25 24 22 21 22 21 20 20 20 21 21 22 23 23 24 26 27 27 27 27 26 26 26 26 26 26 26 26 25 25 24 24 24 23 21 21 20 19 18 17 16 15 14 13 12 11 10 10 9 9 8 8 8
29 31 29 28 30 31 30 30 29 28 27 24 22 24 28 30 29 25 22 23 23 20 19 22 23 20 20 22 24 25 25 25 25 24 24 24 23 23 22 21 21 21 21 21 22 23 23 24 26 27 27 27 27 27 27 26 26 27 27 27 27 26 25 25 25 25 23 22 22 21 20 19 18 17 16 15 14 13 12 11 10 10 9 9 8 8
28 32 32 30 29 31 30 29 29 29 28 26 23 22 23 27 30 28 24 23 23 23 22 22 23 22 21 20 22 25 27 26 26 25 25 26 26 25 23 23 23 22 21 21 22 23 23 24 25 26 27 27 27 27 27 27 27 27 27 27 27 27 26 26 25 25 24 23 22 22 21 20 19 18 16 15 15 14 13 12 11 10 10 9 9 8
26 29 32 31 29 30 30 29 30 31 29 27 26 23 22 23 27 28 27 25 24 25 25 25 25 23 20 20 22 24 26 27 26 25 25 26 27 26 25 25 24 23 22 22 22 22 23 25 25 26 26 27 27 27 27 27 27 27 27 28 28 27 27 26 26 26 25 24 23 23 22 21 20 19 17 16 15 15 14 13 12 11 11 10 9 9
29 27 30 32 30 30 30 29 30 31 29 27 27 25 22 23 24 26 27 26 26 27 27 27 27 24 20 20 22 23 24 24 24 24 25 26 27 27 26 26 25 24 23 22 22 22 23 24 25 25 26 27 28 27 27 27 27 27 28 28 28 28 27 27 27 26 26 25 24 24 23 22 21 20 18 17 16 16 15 15 14 13 12 11 10 9
32 30 29 31 32 31 30 30 29 30 29 28 27 26 24 23 23 24 26 27 27 27 27 28 29 27 24 21 20 22 24 24 24 24 25 26 27 27 27 26 25 24 24 23 23 23 23 23 24 25 25 26 28 28 28 28 27 27 28 29 29 28 28 27 27 27 27 26 25 24 24 23 22 21 20 19 18 17 16 16 15 14 13 12 11 10
32 34 31 30 32 32 32 30 29 30 30 29 27 27 26 23 23 24 25 27 28 27 26 27 29 29 27 24 21 20 22 25 25 24 25 27 27 27 28 27 25 24 24 24 23 23 23 23 23 24 25 26 27 28 28 28 28 27 28 29 29 29 29 28 28 28 27 27 26 25 25 23 22 22 21 20 19 19 18 17 16 15 14 13 13 12
30 33 35 33 31 32 33 32 30 30 30 31 29 28 27 25 24 25 25 25 27 27 27 28 28 28 28 26 26 23 20 22 25 26 25 26 27 27 28 29 27 26 25 24 24 24 23 22 23 23 24 25 26 27 28 28 28 27 28 29 30 29 29 29 28 28 28 27 27 26 25 24 23 22 22 21 20 20 19 18 17 16 15 14 14 13
27 29 34 37 33 32 34 35 32 30 30 31 31 29 29 27 25 24 24 25 25 25 27 30 28 27 26 25 26 27 24 21 21 24 25 25 26 26 27 29 28 27 26 25 24 24 23 23 23 23 24 25 26 27 27 27 27 27 28 29 30 30 30 29 29 29 28 28 27 26 25 24 24 23 23 22 21 21 20 19 18 17 16 15 14 14
28 27 28 34 36 34 34 35 34 31 30 30 31 31 31 29 26 23 23 25 25 24 25 28 28 26 24 23 23 26 28 26 22 21 23 25 26 25 26 28 28 27 26 25 24 23 23 22 23 23 24 25 26 27 27 27 27 27 27 29 30 30 30 30 30 29 29 28 27 27 26 25 25 24 24 23 22 22 21 20 19 18 17 16 15 14
27 27 25 28 34 37 35 34 36 35 30 28 31 33 32 30 28 26 24 24 25 24 24 26 27 27 25 24 24 25 27 29 28 24 23 24 25 25 25 27 28 27 27 26 25 23 22 22 22 23 24 24 25 26 27 27 27 27 27 28 30 30 30 30 30 30 29 29 28 27 26 26 25 25 25 24 24 23 22 21 20 19 18 17 16 15
24 25 25 24 28 34 36 35 36 38 34 29 28 31 31 30 30 28 25 23 24 24 23 25 27 27 27 25 25 27 26 27 29 27 25 24 25 25 25 26 28 28 27 27 26 24 22 22 22 23 24 24 25 26 26 27 27 27 27 28 29 30 30 31 30 30 30 29 29 28 27 27 26 26 25 25 24 23 22 22 21 20 19 18 18 16
23 25 26 25 25 28 32 34 34 37 40 35 27 26 29 31 31 30 27 24 24 23 22 24 25 25 26 26 25 28 28 26 27 28 27 27 27 26 25 26 28 28 27 27 26 24 23 22 23 23 24 24 24 25 25 26 27 27 27 28 29 30 30 30 30 30 30 30 29 28 28 27 27 26 26 25 24 23 23 22 22 21 20 19 19 18
24 25 26 26 27 27 28 31 33 34 38 38 32 27 28 30 30 31 30 26 24 22 21 23 23 23 24 25 25 27 28 28 28 28 28 29 29 28 27 26 27 29 28 28 27 25 24 23 24 24 24 24 24 24 25 25 26 27 27 28 28 29 30 30 30 30 30 30 29 29 28 28 27 27 26 26 25 24 24 23 22 22 21 20 20 19
24 26 27 27 28 29 29 29 32 32 33 36 36 32 29 29 30 30 30 30 26 22 20 20 21 22 23 24 25 25 25 27 29 29 28 29 29 29 29 28 28 28 29 28 28 27 25 24 25 25 25 25 24 24 24 25 25 26 27 27 28 29 29 30 30 30 30 30 30 30 29 29 28 27 27 26 26 25 24 24 23 22 21 21 21 20
23 25 28 29 28 29 31 30 31 34 32 32 35 36 32 29 30 30 29 30 30 26 22 20 18 18 20 23 26 25 22 22 25 28 28 28 29 29 29 29 29 29 29 29 29 29 27 25 25 25 25 25 25 25 25 25 25 25 26 26 27 28 29 30 30 30 30 30 30 30 30 30 29 28 28 27 26 26 25 24 24 23 23 22 22 21
22 24 27 30 29 29 30 30 31 33 33 32 33 36 35 31 31 30 28 28 29 28 26 23 20 16 15 17 21 25 25 21 20 24 25 26 28 29 28 29 29 29 29 30 30 29 27 25 25 25 25 25 25 26 26 25 25 25 25 26 26 27 28 29 29 30 30 30 30 31 31 30 30 29 29 28 27 26 26 25 25 24 24 23 23 23
20 24 26 28 29 29 29 30 29 30 32 32 32 34 37 36 33 31 29 27 27 29 28 25 22 19 15 15 17 20 23 23 20 21 24 24 25 27 28 28 28 28 29 30 30 29 27 26 26 25 25 25 25 26 26 26 25 25 25 25 25 27 28 28 28 29 30 30 31 31 31 31 30 30 30 28 27 27 26 25 25 25 25 24 24 23
19 23 25 26 28 29 30 30 30 30 32 33 33 34 37 38 36 33 30 26 25 28 30 27 25 21 17 16 17 17 18 20 20 21 22 23 22 24 26 26 26 28 30 31 30 30 29 28 27 26 25 25 26 27 27 27 26 26 26 25 25 26 27 27 27 28 29 30 31 31 31 31 30 30 30 29 28 27 27 26 25 25 25 25 25 24
21 22 24 25 27 29 28 27 27 28 30 31 35 37 37 38 37 35 31 27 26 28 29 27 27 26 22 18 17 19 20 19 19 19 21 23 23 23 23 23 23 24 28 30 30 30 29 29 28 27 26 26 27 27 27 28 28 27 27 26 26 25 26 26 26 27 28 29 30 31 31 31 31 30 30 30 29 28 28 27 26 25 25 26 25 24
23 24 25 26 29 30 27 24 23 24 27 29 32 35 37 39 37 34 31 31 29 28 29 28 24 24 26 24 19 18 19 19 18 18 17 20 24 24 22 22 22 22 24 26 27 27 27 28 29 28 27 27 27 27 27 28 29 28 28 27 27 26 26 26 25 26 27 28 29 30 31 31 31 31 30 30 30 29 28 28 27 26 25 25 26 25
24 26 27 29 31 32 31 29 26 26 27 29 31 30 32 36 39 37 35 35 32 29 30 31 26 22 22 23 20 18 17 16 17 17 16 17 19 20 20 21 23 23 24 25 26 27 27 27 28 28 28 28 28 28 28 28 29 29 29 29 28 27 26 26 25 25 26 27 28 29 31 31 31 31 30 30 30 29 29 28 28 27 26 26 26 26
24 26 27 29 31 32 32 32 30 28 28 30 32 31 29 32 37 40 39 38 35 31 29 29 28 26 21 17 18 19 17 16 16 17 18 18 17 17 17 19 21 22 23 25 26 27 28 28 28 29 29 30 30 29 29 29 30 30 30 30 29 28 27 26 26 25 25 26 27 27 29 30 30 31 31 30 30 30 29 28 28 27 27 26 26 26
23 25 25 27 29 31 33 32 31 30 30 31 33 33 31 30 35 39 40 40 39 36 32 29 29 29 24 17 16 18 17 17 17 16 18 19 18 17 16 16 18 19 20 21 23 25 27 28 28 29 30 30 30 30 29 29 30 31 31 31 31 30 28 27 27 26 25 26 26 26 27 28 29 30 30 30 30 30 29 29 28 28 27 27 27 26
22 23 24 25 26 30 32 33 33 32 32 33 34 35 33 32 34 37 38 40 41 39 36 33 32 32 28 20 18 19 19 19 19 18 18 19 19 19 18 18 19 19 19 19 19 21 23 26 28 29 30 30 30 30 30 29 30 31 32 32 32 31 30 28 28 27 26 26 26 26 26 27 28 29 30 30 30 31 30 29 28 28 28 27 27 27
21 22 23 24 25 28 29 32 34 34 33 34 37 37 37 36 35 36 36 38 40 40 38 36 35 34 31 25 22 22 21 20 20 20 19 18 18 20 21 20 20 21 21 20 19 20 21 24 26 28 29 30 30 30 30 29 29 30 32 32 32 32 31 30 29 28 27 26 26 25 26 26 27 28 29 30 30 31 31 30 29 28 28 28 28 28
21 22 22 23 24 26 27 28 31 32 33 34 36 37 38 38 36 36 36 37 39 40 38 37 36 35 31 28 27 26 23 21 20 20 20 20 20 22 23 22 22 22 23 22 22 22 22 24 25 26 28 29 30 30 30 29 29 30 31 32 32 33 32 31 30 29 28 27 26 26 26 26 27 27 28 29 30 30 30 30 30 29 28 28 28 28
20 21 21 22 23 24 25 26 28 30 32 33 32 34 38 40 40 38 36 37 39 40 38 36 36 35 32 30 30 29 26 24 22 22 22 22 21 22 23 23 23 23 23 24 24 23 23 24 25 26 27 28 30 31 30 30 29 29 30 31 32 33 33 32 31 30 29 28 27 27 26 26 26 27 27 28 29 29 30 30 30 30 29 29 29 29
21 21 21 21 22 23 24 26 28 30 31 30 29 29 33 37 41 40 39 39 39 40 40 38 37 35 32 31 31 30 28 27 25 24 24 22 22 22 23 23 24 24 24 25 25 25 24 25 26 26 27 28 29 30 31 31 30 29 29 30 32 33 33 32 31 30 30 29 28 28 27 27 27 27 27 27 28 28 29 29 30 30 29 28 28 29
22 22 21 21 22 23 23 26 28 29 28 29 30 29 29 32 36 38 39 40 38 37 38 39 38 36 34 32 32 31 29 29 28 26 24 22 22 22 24 25 25 24 24 25 25 26 25 26 27 27 28 29 29 30 31 32 31 30 29 30 31 32 33 33 32 31 31 30 29 29 28 28 27 27 27 27 27 28 28 29 29 29 29 28 28 28
20 22 22 22 22 22 23 25 26 26 28 30 30 29 28 29 31 33 34 37 38 36 35 36 36 35 34 33 32 31 30 29 30 28 25 22 22 23 24 25 26 25 25 26 26 26 26 27 28 28 29 30 30 31 32 32 32 31 30 30 30 31 32 33 32 31 31 31 31 29 29 28 28 27 27 27 27 28 28 28 28 28 29 29 28 28
18 20 21 23 23 22 23 24 24 25 27 28 26 25 25 26 28 30 31 33 35 35 34 35 34 33 32 32 31 30 30 30 30 29 25 23 22 23 24 25 26 26 26 27 27 27 28 28 28 28 29 30 31 32 32 33 33 32 31 31 30 31 32 32 32 32 32 32 31 30 30 29 29 28 28 27 27 27 28 28 28 28 28 29 28 27
17 18 20 22 23 23 23 23 24 25 25 25 24 24 25 25 26 26 28 31 32 33 34 35 34 32 31 31 30 29 29 30 30 27 25 24 23 23 24 25 25 26 27 27 28 28 28 28 28 29 30 31 32 32 33 34 34 34 33 32 31 31 31 32 32 32 32 32 32 31 31 30 29 28 28 28 27 27 28 28 28 28 28 28 28 27
15 16 18 22 23 24 24 24 24 24 24 24 24 24 24 25 25 25 27 28 28 30 33 34 34 32 31 31 30 28 28 29 28 26 25 24 24 23 24 25 25 26 27 27 28 29 28 29 29 30 31 32 32 33 34 35 35 35 34 33 33 32 32 32 32 31 31 32 32 31 31 30 29 29 28 28 28 27 27 28 28 28 28 28 28 27
15 15 17 20 22 24 26 25 25 24 23 24 25 24 24 25 26 27 27 25 24 26 30 32 33 32 31 30 29 28 27 28 28 27 25 24 23 23 23 23 25 26 27 28 28 28 28 29 30 31 31 32 32 33 34 36 36 36 35 35 34 34 33 32 32 31 31 32 32 32 31 30 29 29 28 28 28 27 28 28 28 28 28 28 27 27
14 15 17 19 20 22 24 25 25 24 23 23 25 25 24 25 27 27 27 26 24 23 26 29 31 31 31 30 28 27 27 27 27 26 25 24 23 23 22 22 23 25 26 27 27 28 28 28 29 30 31 32 33 34 35 37 37 37 36 36 35 34 33 32 31 31 31 32 32 32 31 30 29 28 28 28 27 27 28 28 28 28 28 27 27 27
12 15 17 18 19 20 23 25 25 24 22 22 24 25 24 25 27 26 26 26 24 23 24 27 28 29 30 30 28 27 27 27 26 25 24 23 23 23 23 22 22 23 24 25 26 26 27 28 28 29 30 31 33 34 36 37 37 36 37 37 36 35 33 32 31 31 31 32 32 32 31 30 29 28 28 27 27 27 28 28 28 28 28 27 27 26
9 12 15 16 17 18 21 23 22 21 20 20 22 24 24 25 27 26 25 25 24 24 25 26 27 28 29 29 28 27 26 26 26 25 24 23 23 23 23 23 22 22 23 24 25 25 26 27 27 27 28 30 32 34 35 36 36 36 37 37 36 36 35 33 32 32 32 32 32 32 31 30 29 28 28 27 27 27 28 28 28 28 27 27 26 26
7 9 12 15 17 18 20 21 21 22 21 20 21 23 24 25 27 27 27 26 26 25 25 26 26 27 28 28 28 27 27 26 26 25 24 24 23 23 23 23 23 22 22 23 23 24 24 25 25 26 27 28 29 32 33 34 35 35 36 37 38 37 35 33 32 33 33 32 32 31 30 29 29 28 27 27 26 27 27 27 27 27 27 27 26 25
7 8 10 12 15 18 21 22 23 24 25 23 23 24 26 26 26 27 27 28 27 26 26 26 26 27 28 28 28 27 27 26 25 25 24 23 23 23 23 23 22 20 20 21 21 21 22 22 23 24 25 25 26 29 31 32 32 34 36 37 38 37 35 34 33 33 33 32 32 31 30 29 28 28 27 26 25 26 26 27 27 27 26 26 25 25
8 8 10 12 14 16 18 20 20 23 25 25 25 26 27 28 28 27 28 28 28 26 26 26 26 27 28 28 27 27 27 26 25 25 24 23 23 23 22 22 21 19 19 19 20 20 20 20 20 21 23 23 24 25 28 29 30 32 34 36 37 37 36 34 34 34 33 32 31 31 30 29 28 27 26 25 25 25 25 26 26 26 26 26 26 25
9 10 11 13 13 15 17 19 21 23 25 26 27 28 29 29 29 28 28 29 29 28 27 27 26 26 27 27 27 27 27 26 26 25 24 23 24 23 22 22 21 19 19 19 19 19 19 19 18 19 20 22 22 23 25 27 28 30 32 34 36 37 36 35 35 34 33 32 31 30 29 29 28 27 26 26 26 25 25 26 26 26 26 27 26 26
11 11 11 12 13 15 16 17 19 22 25 26 27 28 29 30 30 30 29 30 30 29 28 27 26 27 27 27 27 26 26 26 25 25 24 24 23 23 22 21 20 20 19 18 19 19 19 18 18 18 19 20 21 21 22 24 26 28 30 32 34 36 36 35 34 33 33 32 31 30 29 29 28 27 27 26 26 25 25 25 25 26 26 27 27 26
11 10 9 10 12 13 13 13 15 19 22 24 26 27 28 29 30 30 30 30 31 31 29 28 27 27 27 27 27 26 26 26 25 25 25 24 23 22 21 20 20 20 19 18 18 18 18 18 17 18 18 19 19 19 21 22 23 25 28 30 32 34 35 35 34 34 33 32 31 31 30 29 29 28 28 28 27 26 24 24 24 24 25 25 25 25
10 9 9 10 11 12 13 15 17 18 21 23 25 26 27 28 30 30 30 30 31 32 31 29 28 27 27 27 27 26 26 26 25 24 24 24 23 22 20 20 21 20 19 18 18 17 17 17 17 17 18 18 18 18 19 20 21 23 26 28 30 33 34 34 34 34 34 33 31 31 30 30 29 29 29 28 27 26 25 24 23 23 23 24 24 24
Wind_Direction
220 222 221 222 222 220 220 221 223 224 228 230 225 224 224 225 227 222 217 218 219 222 223 223 224 220 215 214 214 211 209 211 210 207 209 203 193 192 192 189 189 191 192 191 190 191 190 190 189 188 187 186 187 186 185 184 184 183 182 181 180 179 178 178 179 178 175 174 172 171 169 168 167 166 163 159 157 154 151 151 149 149 150 147 146 142
221 225 224 222 222 223 222 222 223 224 228 230 227 227 225 224 227 223 217 217 218 223 225 224 226 226 220 214 213 212 212 214 210 207 210 205 196 194 194 192 191 191 192 191 191 192 191 191 190 190 188 187 188 188 186 186 185 185 184 184 183 182 181 181 182 181 180 178 177 175 173 172 171 171 170 167 164 160 157 160 158 154 154 153 152 151
223 227 226 223 223 224 224 223 223 224 226 226 224 227 227 223 224 224 221 216 215 222 226 225 227 229 223 218 217 214 213 216 214 213 213 205 197 196 196 195 193 192 192 192 192 192 192 192 191 191 190 189 189 189 188 188 187 186 185 186 186 185 185 185 185 185 184 183 181 180 178 177 175 174 175 173 170 168 164 166 167 164 162 161 161 161
226 227 225 224 223 223 224 223 223 223 224 224 223 224 225 224 223 222 220 214 213 222 227 225 227 229 225 222 220 215 213 216 217 219 218 208 200 198 198 197 196 195 194 193 193 193 193 192 191 192 191 190 191 191 190 189 188 188 188 188 188 189 189 188 188 187 187 186 185 184 182 182 181 177 177 177 174 174 171 169 171 172 171 169 169 169
229 227 224 224 223 222 223 223 222 223 223 224 224 223 223 226 226 224 220 216 218 224 227 226 228 229 225 222 220 216 214 216 216 215 212 207 202 198 199 200 198 197 197 196 195 194 194 193 192 193 192 192 192 192 192 191 191 190 190 190 191 191 191 191 191 190 189 189 189 189 186 185 185 181 178 180 179 178 178 176 176 178 178 177 176 175
229 227 224 223 222 221 223 222 221 223 223 224 224 224 224 228 229 228 225 221 221 224 221 222 228 228 224 224 224 217 215 216 215 212 209 206 205 202 200 200 199 199 200 198 198 197 196 195 194 194 193 193 193 194 193 193 193 192 192 192 193 193 194 194 193 193 192 192 192 192 190 189 189 186 185 186 185 183 183 183 182 183 184 184 183 181
229 226 225 223 222 221 222 223 221 221 223 224 222 223 225 228 230 231 228 224 223 225 220 218 225 229 224 223 224 220 216 215 213 212 211 207 205 205 204 201 200 201 201 200 200 199 197 196 195 195 195 194 195 195 194 194 194 194 194 195 196 196 196 196 195 195 195 195 195 196 195 195 195 194 194 194 191 188 188 188 187 186 187 189 189 187
227 226 225 223 223 222 222 223 220 219 222 224 221 222 223 224 227 230 230 226 227 233 230 220 221 229 230 223 221 221 220 217 212 213 213 209 207 208 207 204 203 203 201 200 200 199 198 197 197 196 196 196 197 196 195 195 195 195 196 198 198 198 198 198 197 197 197 198 198 198 199 200 200 200 199 199 198 194 193 192 192 190 190 193 194 193
226 226 225 223 223 223 221 221 220 219 222 224 223 223 224 223 225 228 230 229 230 235 234 224 221 227 230 225 221 219 220 218 215 214 214 211 209 208 207 206 204 203 203 202 200 199 198 198 198 197 197 198 198 198 197 197 197 196 197 199 200 200 200 200 198 198 199 200 200 201 202 202 203 203 201 200 201 200 198 196 196 195 194 197 199 199
228 226 225 224 223 223 222 221 221 222 223 223 224 224 223 224 225 226 228 230 232 235 232 227 226 228 229 226 222 219 218 218 217 215 213 210 209 208 208 208 206 204 204 203 202 201 200 199 198 197 197 198 200 200 199 198 198 197 198 200 202 202 202 201 200 200 200 201 202 203 204 205 205 205 203 201 201 202 202 201 201 201 201 203 204 203
232 228 225 225 224 222 223 222 221 222 221 221 223 224 223 224 225 225 227 228 232 234 230 228 229 230 230 226 222 220 218 218 217 215 212 210 209 209 209 209 208 205 204 204 202 202 202 199 198 198 198 198 200 201 200 200 200 199 200 202 203 203 204 203 202 202 202 203 204 205 206 206 206 206 206 204 202 203 205 205 205 206 208 209 209 207
232 229 226 225 224 221 222 222 220 219 219 219 220 222 222 221 222 224 223 224 228 231 228 227 228 231 231 225 221 220 217 217 218 215 211 209 209 210 210 209 208 207 205 204 203 202 202 199 197 198 199 199 200 201 201 202 201 201 202 203 204 204 205 204 204 204 204 205 206 207 207 208 208 208 208 208 206 206 208 209 209 210 211 213 213 211
230 228 226 226 223 220 219 220 218 217 216 217 217 218 220 218 218 220 220 221 227 229 227 226 226 230 233 229 224 222 216 214 216 216 212 211 211 210 209 207 208 209 207 206 205 203 201 199 197 198 199 199 200 201 201 202 203 202 203 205 205 205 205 205 205 206 206 208 209 209 209 210 210 209 210 211 211 211 212 213 213 213 214 216 216 215
228 227 226 226 223 219 218 217 216 215 214 215 215 215 217 217 216 218 219 222 227 228 226 225 225 229 232 229 225 225 222 215 213 216 216 212 210 209 207 207 208 210 208 205 206 204 200 198 197 198 199 199 200 201 202 202 203 203 203 205 207 207 206 205 205 206 208 209 210 211 211 211 211 211 212 213 213 213 214 216 216 217 217 218 219 218
229 227 223 223 222 218 217 218 218 217 216 215 215 217 218 218 219 220 220 223 227 228 224 223 225 228 228 226 224 223 224 220 213 213 215 211 207 208 208 206 207 208 207 205 205 205 201 197 198 199 199 199 200 201 202 202 203 203 203 205 207 208 207 206 206 207 208 210 211 212 212 213 213 213 214 215 215 215 216 217 219 219 219 219 220 220
234 232 224 221 222 219 217 217 218 219 219 216 215 218 220 218 222 226 226 226 228 229 225 221 224 227 228 228 225 221 220 221 217 212 212 209 204 205 207 205 206 209 209 207 206 205 202 199 199 199 200 200 201 202 203 203 204 204 204 205 207 209 209 208 207 208 209 210 211 212 212 213 214 214 215 216 216 217 217 218 219 221 221 220 219 219
232 232 229 224 221 219 217 216 216 218 220 217 215 219 220 219 223 228 229 228 227 229 226 223 224 225 227 228 225 221 219 217 216 213 212 208 201 202 207 206 206 208 208 207 207 205 203 200 200 201 201 201 201 202 203 203 204 205 205 206 208 209 210 210 209 209 210 211 212 212 212 213 214 214 215 216 217 217 217 218 219 221 222 221 218 217
233 233 231 227 221 218 215 216 217 218 219 219 217 218 218 220 223 226 227 225 224 227 225 223 224 222 222 224 221 219 218 214 213 212 212 209 203 204 207 206 207 208 207 206 207 206 204 201 201 202 202 202 202 202 203 203 204 205 206 207 208 209 210 211 210 210 211 211 212 213 212 212 213 214 215 216 217 217 217 218 219 220 220 220 219 217
234 233 228 224 223 219 215 216 219 218 218 221 222 218 216 218 219 221 222 222 221 225 224 222 223 222 221 221 217 215 215 214 213 212 211 211 209 209 208 206 208 209 208 207 208 207 205 202 201 202 203 203 203 203 203 203 203 204 206 207 209 210 211 212 212 211 211 212 213 214 213 213 213 215 216 216 216 217 217 218 219 219 219 219 219 218
231 231 227 223 221 221 218 217 218 216 214 218 222 222 219 219 218 218 220 222 221 223 223 221 222 222 221 219 217 216 216 216 216 215 214 215 215 215 213 210 209 208 208 208 208 209 207 204 202 202 203 203 204 204 204 204 204 205 206 207 209 210 211 212 213 213 213 213 214 214 214 214 214 215 216 216 216 217 218 218 218 219 218 218 218 218
231 229 228 225 222 221 220 216 216 216 213 213 217 220 219 217 217 218 219 220 221 223 222 221 223 225 224 221 219 217 215 216 217 216 217 217 217 217 215 214 212 209 208 209 209 210 210 207 203 202 203 204 204 204 205 205 205 205 206 207 208 209 211 212 213 214 214 214 215 215 215 215 215 215 217 217 217 218 218 218 218 219 218 218 218 218
230 228 227 226 223 221 220 217 217 218 216 214 216 218 218 216 215 216 217 216 219 223 223 222 224 226 222 218 218 216 213 215 215 214 215 216 217 217 215 214 214 212 210 210 210 210 211 209 206 204 204 204 205 205 206 207 207 206 207 207 208 209 211 212 213 214 215 215 215 215 216 216 216 216 217 217 218 218 219 219 219 219 218 218 219 219
231 229 228 226 225 224 222 219 219 219 220 221 220 218 218 217 215 216 217 215 216 220 222 223 224 222 213 207 211 214 213 214 212 210 211 214 215 216 215 214 214 212 211 211 211 211 211 211 209 207 205 205 206 206 206 208 208 208 208 207 208 209 211 212 213 214 215 215 216 216 216 217 217 217 217 217 218 219 219 219 220 220 220 219 220 221
232 228 227 226 226 226 224 222 223 223 221 222 223 220 219 218 217 218 219 218 219 219 217 218 220 216 205 201 206 208 209 212 212 209 210 212 213 213 214 214 213 213 213 212 212 212 212 211 212 211 208 206 208 207 207 209 210 210 209 209 209 209 210 211 212 213 214 216 216 216 216 217 217 217 217 217 218 219 219 219 220 221 221 221 221 221
233 227 225 224 222 222 221 221 223 222 220 221 222 219 218 218 219 220 219 220 223 219 215 215 216 211 200 197 202 203 204 210 213 212 210 209 210 210 211 212 214 214 213 211 213 214 213 213 213 212 210 208 209 209 208 209 210 211 211 210 210 209 209 210 211 212 214 216 216 215 216 217 217 218 218 218 218 219 219 219 220 221 222 222 221 221
232 228 225 223 219 216 216 217 220 222 221 222 220 218 217 218 218 220 219 218 219 217 216 215 213 211 207 201 203 208 210 210 212 213 211 208 209 209 208 210 212 212 210 209 211 214 214 213 212 212 211 210 210 211 210 210 211 212 212 212 211 211 210 210 211 211 214 215 215 216 217 217 217 218 218 219 219 219 220 220 220 220 221 222 221 221
231 230 228 227 224 222 222 223 224 226 225 223 220 219 219 218 218 220 219 217 215 214 215 215 213 215 214 208 207 209 206 204 205 208 210 207 206 207 209 210 210 208 207 208 211 214 213 212 211 211 212 211 211 212 212 211 211 212 213 212 213 212 211 210 210 211 213 215 215 216 218 218 218 218 219 219 220 220 221 221 220 220 221 222 221 221
231 232 231 231 229 228 230 231 230 228 227 226 224 225 226 222 218 219 219 217 215 213 214 214 214 216 213 208 204 198 194 196 197 200 203 198 195 199 204 207 209 209 209 210 213 215 214 213 211 212 213 213 213 214 214 213 213 212 213 213 213 213 212 212 211 211 213 215 215 217 218 219 219 219 219 219 220 220 221 221 221 221 221 221 221 222
230 233 232 232 232 230 230 231 232 229 228 227 225 226 229 224 217 217 218 216 215 213 213 213 214 213 209 203 196 192 194 200 200 200 203 198 194 200 205 206 208 209 209 211 214 215 216 216 214 213 214 215 216 216 215 215 214 213 213 213 213 214 214 213 212 211 213 215 216 217 219 219 220 220 219 219 220 220 221 222 222 222 222 222 222 223
229 232 232 233 234 233 230 230 231 230 228 226 224 223 225 223 218 216 218 218 217 216 215 217 217 213 207 204 202 201 202 203 203 204 206 204 204 209 212 211 209 207 207 210 214 214 215 216 215 214 215 216 217 218 217 216 215 214 214 214 214 215 215 214 213 213 213 215 217 217 218 219 219 219 219 219 220 220 221 221 223 223 222 222 223 224
228 229 231 233 235 232 230 230 230 229 227 225 224 222 221 221 220 218 218 219 218 218 217 219 220 215 209 211 215 213 210 207 207 209 209 211 213 215 217 219 215 212 211 212 216 217 216 216 215 214 215 216 216 217 218 218 217 215 215 215 215 216 216 216 215 215 215 216 217 217 217 218 219 219 219 219 220 221 221 221 222 224 223 223 224 225
229 230 230 232 234 232 230 231 229 228 228 226 225 222 220 221 221 220 219 219 217 217 217 218 220 216 214 220 223 218 215 214 213 212 213 217 222 222 224 226 222 218 216 217 221 224 223 221 218 215 215 216 216 217 217 218 217 216 216 215 215 216 217 217 216 216 216 216 216 217 217 218 218 219 219 219 220 221 221 221 222 223 224 224 224 226
230 230 230 231 233 232 231 230 228 227 228 225 222 222 222 222 224 224 222 220 218 217 217 218 218 217 219 225 225 220 218 218 217 218 221 228 232 229 227 226 223 221 220 221 224 227 226 225 223 221 218 217 217 218 218 218 217 217 217 216 215 216 217 217 217 217 217 217 217 218 218 218 218 219 219 219 220 221 222 222 222 223 224 224 225 227
229 229 230 231 232 232 231 229 228 227 226 223 220 222 222 223 224 224 223 222 220 219 219 220 220 219 222 226 225 225 224 223 225 228 230 233 233 228 226 225 223 224 227 227 228 230 230 227 227 226 225 223 220 219 220 220 218 217 217 217 216 216 216 217 217 217 217 218 218 219 219 219 219 219 219 220 220 221 222 222 223 224 224 225 226 227
231 229 229 230 231 232 231 228 227 225 224 222 222 223 223 223 223 224 225 225 223 222 222 223 223 222 223 225 225 227 228 229 233 237 235 232 229 226 227 227 226 228 231 231 230 232 232 230 229 228 227 228 226 223 221 221 220 217 216 217 216 216 216 217 217 217 217 218 219 220 221 221 220 220 220 220 221 221 221 222 223 224 225 226 227 228
233 231 230 230 230 231 229 227 226 226 226 225 224 223 224 224 222 224 225 224 221 220 222 223 224 224 225 227 227 228 230 233 236 237 232 228 228 229 230 230 230 231 232 232 232 233 233 233 232 230 229 229 229 227 223 221 220 219 217 216 216 216 216 216 217 217 217 218 219 221 222 222 221 220 221 221 221 222 222 222 223 224 225 226 227 228
234 232 231 231 230 229 230 229 228 230 229 226 223 222 223 223 221 222 224 221 218 218 220 220 221 223 226 228 230 231 232 233 233 230 229 230 232 233 233 233 233 233 233 234 235 235 235 235 234 233 232 230 229 229 226 222 220 219 217 216 216 216 216 216 217 218 218 219 220 221 223 223 222 222 222 222 222 223 222 222 222 224 225 226 227 227
234 232 231 232 230 229 232 231 229 227 224 220 219 219 220 222 221 221 224 223 218 218 219 219 220 223 225 228 230 231 229 228 226 225 230 236 236 235 237 237 236 236 236 237 237 237 237 237 236 235 235 232 230 228 227 223 220 219 218 217 216 216 216 217 218 218 219 220 221 222 223 224 224 223 223 223 224 224 224 223 223 224 225 226 227 227
236 232 230 231 231 229 230 229 226 224 220 215 216 219 219 222 223 221 222 222 218 218 221 221 221 222 223 226 228 227 224 224 223 224 232 239 238 237 238 238 238 238 237 237 239 239 239 239 239 238 236 234 231 229 228 225 221 219 218 217 217 216 216 217 218 219 220 220 221 221 223 224 224 224 224 225 225 225 225 225 225 225 225 227 228 228
238 234 229 229 229 228 229 228 227 226 221 215 216 220 221 222 222 220 218 218 218 219 221 221 222 222 222 224 226 223 221 223 225 226 233 238 237 237 237 238 239 239 238 239 241 241 240 241 241 239 236 234 231 228 227 224 221 219 218 218 218 218 217 218 219 219 219 220 220 221 223 224 225 225 226 226 226 226 226 226 226 226 226 227 228 229
240 237 233 231 230 228 228 228 228 227 223 219 220 223 223 222 219 217 216 217 220 221 220 219 220 221 221 223 224 222 221 225 228 230 234 236 237 237 238 238 239 240 240 241 241 241 241 242 242 240 237 234 231 228 226 224 222 220 219 218 218 218 219 219 219 218 219 220 220 221 223 224 225 225 226 227 227 227 227 227 227 227 227 227 229 229
241 237 235 233 232 230 228 228 229 227 224 224 225 223 222 221 218 215 217 220 222 221 219 218 219 221 222 223 222 222 223 226 229 231 233 235 237 239 239 240 241 242 242 241 241 241 242 243 244 242 237 233 231 227 225 225 223 220 219 219 219 219 220 220 219 218 219 220 221 222 223 224 224 225 226 227 228 229 228 227 227 227 227 228 228 229
251 244 238 234 232 231 229 228 228 226 224 227 227 222 220 219 217 216 219 222 222 221 220 219 219 221 222 222 222 223 224 226 229 231 232 234 237 239 240 241 242 243 243 241 241 242 242 243 245 244 238 233 230 227 225 224 223 220 219 218 218 220 221 220 219 219 220 220 221 221 222 223 223 224 226 227 228 229 228 226 226 226 227 227 227 227
266 250 243 237 233 231 228 225 225 224 225 227 225 219 217 217 217 217 221 223 223 222 223 221 221 222 222 222 223 223 223 225 228 230 231 232 236 239 240 240 241 244 243 241 241 243 242 242 244 243 237 232 228 224 224 224 222 220 219 218 218 220 221 220 218 219 220 220 220 221 221 221 222 224 225 226 227 228 227 225 225 225 226 226 226 226
274 257 253 244 235 234 233 230 228 227 227 227 224 221 219 218 217 219 222 224 224 224 223 223 223 223 223 222 222 222 223 225 227 229 230 232 235 238 240 240 241 243 243 241 242 243 241 241 243 240 235 231 226 221 221 222 220 218 218 218 218 220 220 218 217 218 219 219 219 220 219 220 221 223 224 225 226 226 225 224 223 223 224 224 224 224
279 273 266 250 242 244 242 236 233 233 232 230 228 225 222 220 219 220 222 224 224 224 224 225 225 224 222 221 221 221 223 224 226 228 230 231 233 236 238 238 240 242 242 241 242 243 241 242 241 236 230 228 224 219 218 219 218 217 217 217 217 218 217 216 216 217 217 217 218 218 218 218 219 221 222 223 224 223 222 221 221 221 221 221 222 223
289 289 277 261 255 251 241 234 235 236 235 233 230 227 225 223 222 221 222 223 224 224 225 225 226 224 222 219 219 221 222 223 224 227 228 229 231 234 235 237 238 240 240 240 242 242 240 239 238 232 225 223 221 219 217 217 216 216 216 216 215 215 214 213 214 215 216 216 216 217 217 217 218 219 220 221 220 219 220 220 220 221 222 222 223 225
298 298 283 268 261 254 246 244 244 241 236 233 231 229 227 225 224 222 221 221 223 225 225 224 224 223 221 219 218 220 221 221 222 224 226 227 229 231 233 235 237 238 238 238 240 241 238 234 233 229 222 220 219 219 217 217 216 216 215 214 213 212 211 211 213 213 214 214 215 216 216 217 217 218 219 218 217 218 219 221 222 224 224 225 226 227
308 300 287 275 267 258 253 253 252 245 237 232 230 228 226 225 224 223 222 222 222 224 224 223 223 222 221 220 218 218 220 220 220 222 224 225 225 227 231 235 235 235 235 236 238 239 237 233 229 225 222 220 218 217 216 216 215 214 212 211 210 209 209 210 211 212 212 213 214 215 216 216 216 217 217 217 217 218 221 222 225 226 227 228 229 229
322 306 295 285 273 263 257 257 255 245 236 231 228 225 224 223 223 224 224 224 223 222 222 223 223 222 221 220 218 218 218 219 219 221 222 223 224 226 229 233 232 230 231 233 234 235 236 232 224 220 219 218 215 214 213 213 213 212 210 210 209 208 208 209 211 211 212 213 214 215 215 216 216 216 217 217 217 219 222 224 226 227 227 227 228 227
331 318 306 291 279 273 270 266 258 248 239 233 229 226 225 224 224 225 226 226 224 222 222 223 223 222 221 219 218 218 218 219 220 220 220 221 223 223 224 227 228 226 227 230 231 232 233 230 222 216 215 214 212 211 210 209 209 209 210 210 209 207 207 208 210 212 212 214 215 215 215 215 215 215 217 218 219 220 222 223 225 225 225 225 225 225